ALA735 EFHK-UGTB

Flight info

Callsign ALA735
Flight time N/A
Altitude 39000
Route KOIVU Y123 LARTI Q77 GONOS DCT GATVA DCT DGP DCT SARPI DCT GIMUR
Aircraft B772/H-SDE2E3FGHIJ5LORVWXY/LB1D1

Departure

Time N/A
Airport Helsinki Vantaa Airport (EFHK)

Arrival

Time 2026-05-05 15:40
Airport Tbilisi International Airport (UGTB)
Time Latitude Longitude Altitude Speed Heading
2026-05-05 15:21 41.98903 43.96182 18378 ft 368 kts 78°
2026-05-05 15:21 41.99422 43.99364 18338 ft 342 kts 78°
2026-05-05 15:21 41.99913 44.02384 18310 ft 324 kts 79°
2026-05-05 15:21 42.00389 44.05319 18157 ft 315 kts 79°
2026-05-05 15:22 42.00858 44.08222 18026 ft 329 kts 78°
2026-05-05 15:22 42.01105 44.11290 17855 ft 330 kts 96°
2026-05-05 15:22 42.00567 44.14233 17683 ft 327 kts 116°
2026-05-05 15:22 41.99394 44.16866 17325 ft 326 kts 127°
2026-05-05 15:23 41.98043 44.19317 16913 ft 325 kts 129°
2026-05-05 15:23 41.96666 44.21692 16527 ft 321 kts 130°
2026-05-05 15:23 41.95293 44.24024 16149 ft 315 kts 130°
2026-05-05 15:23 41.93954 44.26289 15792 ft 311 kts 130°
2026-05-05 15:24 41.92617 44.28547 15430 ft 309 kts 130°
2026-05-05 15:24 41.91270 44.30821 15049 ft 308 kts 130°
2026-05-05 15:24 41.89941 44.33064 14690 ft 306 kts 130°
2026-05-05 15:24 41.88625 44.35282 14333 ft 304 kts 131°
2026-05-05 15:25 41.87321 44.37479 13978 ft 302 kts 130°
2026-05-05 15:25 41.86009 44.39687 13629 ft 300 kts 130°
2026-05-05 15:25 41.84712 44.41868 13266 ft 298 kts 130°
2026-05-05 15:25 41.83432 44.44019 12921 ft 297 kts 130°
2026-05-05 15:26 41.82141 44.46188 12581 ft 295 kts 130°
2026-05-05 15:26 41.80868 44.48323 12264 ft 293 kts 130°
2026-05-05 15:26 41.79612 44.50431 11957 ft 290 kts 130°
2026-05-05 15:26 41.78342 44.52560 11613 ft 288 kts 130°
2026-05-05 15:27 41.77097 44.54644 11287 ft 287 kts 129°
2026-05-05 15:27 41.75861 44.56714 10951 ft 286 kts 129°
2026-05-05 15:27 41.74612 44.58802 10605 ft 284 kts 129°
2026-05-05 15:27 41.73385 44.60853 10266 ft 283 kts 129°
2026-05-05 15:28 41.72166 44.62888 10036 ft 278 kts 129°
2026-05-05 15:28 41.70976 44.64875 9921 ft 275 kts 129°
2026-05-05 15:28 41.69752 44.66913 9545 ft 278 kts 129°
2026-05-05 15:28 41.68553 44.68910 9204 ft 276 kts 129°
2026-05-05 15:29 41.67354 44.70905 8894 ft 272 kts 129°
2026-05-05 15:29 41.66169 44.72877 8610 ft 269 kts 129°
2026-05-05 15:29 41.64991 44.74834 8298 ft 269 kts 129°
2026-05-05 15:29 41.63820 44.76778 8010 ft 269 kts 129°
2026-05-05 15:30 41.62664 44.78698 7709 ft 268 kts 128°
2026-05-05 15:30 41.61485 44.80652 7418 ft 267 kts 128°
2026-05-05 15:30 41.60335 44.82559 7137 ft 266 kts 128°
2026-05-05 15:30 41.59168 44.84493 6860 ft 264 kts 128°
2026-05-05 15:31 41.58012 44.86406 6649 ft 263 kts 128°
2026-05-05 15:31 41.56869 44.88298 6433 ft 264 kts 128°
2026-05-05 15:31 41.55707 44.90220 6215 ft 263 kts 128°
2026-05-05 15:31 41.54561 44.92115 6006 ft 260 kts 128°
2026-05-05 15:32 41.53445 44.93957 5798 ft 253 kts 128°
2026-05-05 15:32 41.52364 44.95740 5730 ft 240 kts 128°
2026-05-05 15:32 41.51332 44.97443 5606 ft 234 kts 128°
2026-05-05 15:32 41.50309 44.99132 5383 ft 234 kts 128°
2026-05-05 15:33 41.49280 45.00827 5128 ft 234 kts 128°
2026-05-05 15:33 41.48258 45.02511 4874 ft 231 kts 128°
2026-05-05 15:33 41.47409 45.04287 4588 ft 226 kts 106°
2026-05-05 15:33 41.47291 45.06263 4499 ft 209 kts 77°
2026-05-05 15:34 41.47855 45.07996 4484 ft 196 kts 54°
2026-05-05 15:34 41.48665 45.09392 4489 ft 187 kts 50°
2026-05-05 15:34 41.49510 45.10688 4494 ft 184 kts 47°
2026-05-05 15:34 41.50400 45.11905 4495 ft 183 kts 37°
2026-05-05 15:35 41.51560 45.12609 4437 ft 185 kts
2026-05-05 15:35 41.52838 45.12481 4269 ft 184 kts 342°
2026-05-05 15:35 41.53905 45.11561 4052 ft 181 kts 319°
2026-05-05 15:35 41.54769 45.10409 4000 ft 169 kts 315°
2026-05-05 15:36 41.55585 45.09292 3996 ft 166 kts 317°
2026-05-05 15:36 41.56420 45.08252 3986 ft 165 kts 319°
2026-05-05 15:36 41.57264 45.07206 3777 ft 164 kts 318°
2026-05-05 15:36 41.58076 45.06191 3561 ft 153 kts 318°
2026-05-05 15:37 41.58838 45.05238 3381 ft 148 kts 319°
2026-05-05 15:37 41.59587 45.04301 3190 ft 147 kts 319°
2026-05-05 15:37 41.60324 45.03377 2998 ft 145 kts 319°
2026-05-05 15:37 41.61062 45.02451 2809 ft 147 kts 319°
2026-05-05 15:38 41.61812 45.01510 2610 ft 147 kts 319°
2026-05-05 15:38 41.62542 45.00594 2418 ft 142 kts 319°
2026-05-05 15:38 41.63260 44.99681 2210 ft 142 kts 320°
2026-05-05 15:38 41.63993 44.98776 1996 ft 145 kts 320°
2026-05-05 15:39 41.64723 44.97861 1814 ft 144 kts 321°
2026-05-05 15:39 41.65449 44.96951 1640 ft 140 kts 321°
2026-05-05 15:39 41.66158 44.96064 1541 ft 131 kts 319°
2026-05-05 15:39 41.66719 44.95359 1553 ft 87 kts 317°
2026-05-05 15:40 41.67055 44.94938 1560 ft 53 kts 317°
2026-05-05 15:40 41.67296 44.94629 1576 ft 36 kts 316°
2026-05-05 15:40 41.67402 44.94495 1582 ft 13 kts 316°
2026-05-05 15:40 41.67458 44.94426 1585 ft 7 kts 322°
2026-05-05 15:41 41.67504 44.94410 1586 ft 6 kts 15°
2026-05-05 15:41 41.67538 44.94455 1589 ft 8 kts 63°
2026-05-05 15:41 41.67565 44.94546 1591 ft 12 kts 71°
2026-05-05 15:41 41.67590 44.94654 1593 ft 12 kts 73°
2026-05-05 15:42 41.67613 44.94757 1597 ft 10 kts 73°
2026-05-05 15:42 41.67634 44.94849 1600 ft 11 kts 72°
2026-05-05 15:42 41.67657 44.94950 1604 ft 10 kts 73°
2026-05-05 15:42 41.67666 44.95006 1606 ft 5 kts 88°
2026-05-05 15:43 41.67643 44.95072 1605 ft 10 kts 130°
2026-05-05 15:43 41.67580 44.95159 1602 ft 15 kts 134°
2026-05-05 15:43 41.67508 44.95262 1598 ft 16 kts 133°
2026-05-05 15:43 41.67439 44.95368 1594 ft 13 kts 129°
2026-05-05 15:44 41.67377 44.95467 1590 ft 16 kts 130°
2026-05-05 15:44 41.67313 44.95555 1587 ft 11 kts 135°
2026-05-05 15:44 41.67252 44.95637 1587 ft 13 kts 133°
2026-05-05 15:44 41.67182 44.95738 1585 ft 15 kts 132°
2026-05-05 15:45 41.67109 44.95842 1583 ft 12 kts 133°
2026-05-05 15:45 41.67067 44.95920 1584 ft 9 kts 123°
2026-05-05 15:45 41.67020 44.95995 1584 ft 11 kts 133°
2026-05-05 15:45 41.66960 44.96081 1582 ft 12 kts 134°
2026-05-05 15:46 41.66920 44.96137 1581 ft 1 kts 133°
2026-05-05 15:46 41.66918 44.96140 1581 ft 1 kts 133°
2026-05-05 15:47 41.66898 44.96167 1580 ft 4 kts 133°
2026-05-05 15:47 41.66886 44.96184 1580 ft 4 kts 133°
2026-05-05 15:47 41.66879 44.96216 1581 ft 1 kts 77°
2026-05-05 15:47 41.66882 44.96224 1581 ft 0 kts 64°
2026-05-05 15:48 41.66886 44.96234 1582 ft 1 kts 57°
2026-05-05 15:48 41.66895 44.96249 1583 ft 1 kts 47°
2026-05-05 15:48 41.66906 44.96262 1584 ft 1 kts 39°
2026-05-05 15:48 41.66914 44.96270 1585 ft 1 kts 40°
2026-05-05 15:49 41.66925 44.96282 1586 ft 2 kts 39°
2026-05-05 15:49 41.66929 44.96287 1586 ft 0 kts 43°